Weather History for Spearfish, SD

Change the Weather History Date:

Wednesday, November 21, 2012

  Actual Average (KEFC) Record (KEFC)
Temperature  
Mean Temperature 56 °F -  
Max Temperature 66 °F 47 °F 71 °F (1974)
Min Temperature 44 °F 20 °F -14 °F (1977)
Degree Days  
Heating Degree Days 9    
Growing Degree Days 6 (Base 50)    
Moisture  
Dew Point 26 °F    
Average Humidity 31    
Maximum Humidity 61    
Minimum Humidity 21    
Precipitation  
Precipitation 0.00 in - - ()
Sea Level Pressure  
Sea Level Pressure 29.78 in    
Wind  
Wind Speed 21 mph (WSW)    
Max Wind Speed 30 mph    
Max Gust Speed 44 mph    
Visibility 10 miles    
Events      
Averages and records for this station are not official NWS values.
T = Trace of Precipitation, MM = Missing Value Source: NWS Daily Summary

Daily Weather History Graph

Daily Weather History Graph

Search for Another Location

Airport:

Trip Planner

Search our weather history database for the weather conditions in past years. The results will help you decide how hot, cold, wet, or windy it might be!

Date:

Astronomy

Nov. 21, 2012 Rise Set
Actual Time 7:59 AM CST 5:21 PM CST
Civil Twilight 7:27 AM CST 5:54 PM CST
Nautical Twilight 6:52 AM CST 6:29 PM CST
Astronomical Twilight 6:17 AM CST 7:04 PM CST
Moon 1:52 PM CST 1:06 AM CST
Length of Visible Light 10h 26m
Length of Day
9h 22m
First Quarter, 62% of the Moon is Illuminated
Nov 21
First Quarter
Nov 28
Full
Dec 6
Last Quarter
Dec 13
New
Dec 19
First Quarter

Hourly Weather History & Observations

Time (CST) Temp. Windchill Dew Point Humidity Pressure Visibility Wind Dir Wind Speed Gust Speed Precip Events Conditions
12:15 AM 57.2 °F - 28.4 °F 33% 29.88 in 10.0 mi SW 27.6 mph 33.4 mph N/A   Clear
12:35 AM 59.0 °F - 26.6 °F 29% 29.88 in 10.0 mi SW 28.8 mph 36.8 mph N/A   Clear
12:55 AM 59.0 °F - 26.6 °F 29% 29.88 in 10.0 mi SW 29.9 mph 43.7 mph N/A   Clear
1:15 AM 57.2 °F - 26.6 °F 31% 29.88 in 10.0 mi SW 25.3 mph 33.4 mph N/A   Clear
1:35 AM 59.0 °F - 26.6 °F 29% 29.88 in 10.0 mi SSW 24.2 mph 32.2 mph N/A   Clear
1:55 AM 59.0 °F - 24.8 °F 27% 29.87 in 10.0 mi SW 26.5 mph 36.8 mph N/A   Clear
2:15 AM 59.0 °F - 24.8 °F 27% 29.88 in 10.0 mi SW 26.5 mph 36.8 mph N/A   Clear
2:55 AM 57.2 °F - 24.8 °F 29% 29.86 in 10.0 mi SSW 26.5 mph 35.7 mph N/A   Clear
3:15 AM 57.2 °F - 24.8 °F 29% 29.87 in 10.0 mi SW 24.2 mph 33.4 mph N/A   Clear
3:35 AM 59.0 °F - 24.8 °F 27% 29.86 in 10.0 mi SW 29.9 mph 40.3 mph N/A   Clear
3:55 AM 59.0 °F - 24.8 °F 27% 29.85 in 10.0 mi SW 28.8 mph 36.8 mph N/A   Clear
4:15 AM 57.2 °F - 26.6 °F 31% 29.86 in 10.0 mi SW 21.9 mph 36.8 mph N/A   Clear
4:35 AM 57.2 °F - 26.6 °F 31% 29.85 in 10.0 mi SW 19.6 mph 26.5 mph N/A   Clear
4:55 AM 57.2 °F - 26.6 °F 31% 29.84 in 10.0 mi SW 23.0 mph 33.4 mph N/A   Clear
5:15 AM 57.2 °F - 26.6 °F 31% 29.83 in 10.0 mi SW 27.6 mph 35.7 mph N/A   Clear
5:35 AM 57.2 °F - 26.6 °F 31% 29.83 in 10.0 mi SW 24.2 mph 32.2 mph N/A   Clear
5:55 AM 55.4 °F - 26.6 °F 33% 29.82 in 10.0 mi SW 24.2 mph 32.2 mph N/A   Clear
6:15 AM 55.4 °F - 26.6 °F 33% 29.81 in 10.0 mi SW 23.0 mph 32.2 mph N/A   Clear
6:35 AM 55.4 °F - 26.6 °F 33% 29.81 in 10.0 mi SW 20.7 mph 32.2 mph N/A   Clear
6:55 AM 55.4 °F - 26.6 °F 33% 29.81 in 10.0 mi SW 23.0 mph 29.9 mph N/A   Clear
7:15 AM 55.4 °F - 26.6 °F 33% 29.81 in 10.0 mi SW 24.2 mph 28.8 mph N/A   Clear
7:35 AM 55.4 °F - 26.6 °F 33% 29.81 in 10.0 mi SW 17.3 mph 27.6 mph N/A   Clear
7:55 AM 55.4 °F - 26.6 °F 33% 29.81 in 10.0 mi SW 20.7 mph 28.8 mph N/A   Clear
8:15 AM 55.4 °F - 26.6 °F 33% 29.81 in 10.0 mi SW 23.0 mph 29.9 mph N/A   Clear
8:35 AM 55.4 °F - 26.6 °F 33% 29.82 in 10.0 mi SW 18.4 mph 23.0 mph N/A   Clear
8:55 AM 57.2 °F - 26.6 °F 31% 29.81 in 10.0 mi SSW 17.3 mph 24.2 mph N/A   Clear
9:15 AM 57.2 °F - 26.6 °F 31% 29.81 in 10.0 mi Calm Calm - N/A   Clear
9:35 AM 55.4 °F - 26.6 °F 33% 29.81 in 10.0 mi West 6.9 mph - N/A   Clear
9:55 AM 55.4 °F - 26.6 °F 33% 29.80 in 10.0 mi West 9.2 mph - N/A   Clear
10:15 AM 53.6 °F - 26.6 °F 35% 29.80 in 10.0 mi West 4.6 mph - N/A   Clear
10:35 AM 55.4 °F - 26.6 °F 33% 29.79 in 10.0 mi West 9.2 mph - N/A   Clear
10:55 AM 57.2 °F - 26.6 °F 31% 29.78 in 10.0 mi NW 5.8 mph - N/A   Clear
11:15 AM 59.0 °F - 26.6 °F 29% 29.77 in 10.0 mi West 8.1 mph - N/A   Clear
11:35 AM 60.8 °F - 26.6 °F 27% 29.75 in 10.0 mi NW 11.5 mph - N/A   Clear
11:55 AM 64.4 °F - 26.6 °F 24% 29.75 in 10.0 mi West 12.7 mph 19.6 mph N/A   Clear
12:15 PM 64.4 °F - 24.8 °F 22% 29.73 in 10.0 mi WSW 16.1 mph 21.9 mph N/A   Clear
12:35 PM 64.4 °F - 26.6 °F 24% 29.72 in 10.0 mi WSW 15.0 mph 23.0 mph N/A   Clear
12:55 PM 64.4 °F - 24.8 °F 22% 29.71 in 10.0 mi West 13.8 mph 24.2 mph N/A   Clear
1:15 PM 66.2 °F - 24.8 °F 21% 29.70 in 10.0 mi West 15.0 mph 25.3 mph N/A   Clear
1:35 PM 64.4 °F - 24.8 °F 22% 29.70 in 10.0 mi WSW 17.3 mph 20.7 mph N/A   Clear
1:55 PM 64.4 °F - 24.8 °F 22% 29.69 in 10.0 mi WSW 12.7 mph - N/A   Clear
2:55 PM 66.2 °F - 24.8 °F 21% 29.68 in 10.0 mi West 11.5 mph 20.7 mph N/A   Clear
3:35 PM 64.4 °F - 24.8 °F 22% 29.67 in 10.0 mi West 13.8 mph 19.6 mph N/A   Clear
3:55 PM 64.4 °F - 24.8 °F 22% 29.67 in 10.0 mi WSW 17.3 mph 20.7 mph N/A   Clear
4:15 PM 62.6 °F - 24.8 °F 24% 29.67 in 10.0 mi WSW 17.3 mph - N/A   Clear
4:35 PM 64.4 °F - 24.8 °F 22% 29.67 in 10.0 mi WSW 21.9 mph 33.4 mph N/A   Clear
4:55 PM 64.4 °F - 23.0 °F 21% 29.68 in 10.0 mi WSW 18.4 mph 29.9 mph N/A   Clear
5:15 PM 62.6 °F - 23.0 °F 22% 29.68 in 10.0 mi SW 20.7 mph 26.5 mph N/A   Clear
5:35 PM 62.6 °F - 23.0 °F 22% 29.69 in 10.0 mi WSW 17.3 mph 26.5 mph N/A   Clear
5:55 PM 59.0 °F - 23.0 °F 25% 29.69 in 10.0 mi SW 13.8 mph 20.7 mph N/A   Clear
6:15 PM 59.0 °F - 23.0 °F 25% 29.69 in 10.0 mi WSW 16.1 mph 21.9 mph N/A   Clear
6:35 PM 59.0 °F - 23.0 °F 25% 29.70 in 10.0 mi WSW 12.7 mph 21.9 mph N/A   Clear
6:55 PM 57.2 °F - 23.0 °F 27% 29.70 in 10.0 mi WSW 9.2 mph - N/A   Clear
7:55 PM 57.2 °F - 23.0 °F 27% 29.70 in 10.0 mi WSW 18.4 mph 25.3 mph N/A   Clear
8:15 PM 59.0 °F - 23.0 °F 25% 29.70 in 10.0 mi WSW 16.1 mph 23.0 mph N/A   Clear
8:35 PM 59.0 °F - 24.8 °F 27% 29.71 in 10.0 mi West 18.4 mph 23.0 mph N/A   Clear
8:55 PM 59.0 °F - 24.8 °F 27% 29.72 in 10.0 mi West 12.7 mph 21.9 mph N/A   Mostly Cloudy
9:15 PM 57.2 °F - 24.8 °F 29% 29.73 in 10.0 mi NW 9.2 mph 18.4 mph N/A   Mostly Cloudy
9:35 PM 53.6 °F - 24.8 °F 33% 29.74 in 10.0 mi NW 13.8 mph 23.0 mph N/A   Partly Cloudy
9:55 PM 48.2 °F - 32.0 °F 54% 29.79 in 10.0 mi NW 19.6 mph 28.8 mph N/A   Clear
10:15 PM 48.2 °F - 32.0 °F 54% 29.80 in 10.0 mi NW 13.8 mph 23.0 mph N/A   Clear
10:35 PM 46.4 °F 39.8 °F 32.0 °F 57% 29.81 in 10.0 mi WNW 16.1 mph 21.9 mph N/A   Clear
10:55 PM 46.4 °F 39.8 °F 32.0 °F 57% 29.81 in 10.0 mi WNW 16.1 mph 21.9 mph N/A   Clear
11:15 PM 46.4 °F 40.7 °F 32.0 °F 57% 29.82 in 10.0 mi WNW 12.7 mph 21.9 mph N/A   Clear
11:35 PM 46.4 °F 39.2 °F 32.0 °F 57% 29.83 in 10.0 mi WNW 18.4 mph 24.2 mph N/A   Clear
11:55 PM 44.6 °F 40.2 °F 32.0 °F 61% 29.83 in 10.0 mi WNW 8.1 mph - N/A   Clear